STARLINK-36817

Last updated on Tue Mar 24 2026 00:02:05 GMT+0000 (Coordinated Universal Time)

1 67882U 26035D 26082.50003471 .00108780 00000+0 72383-3 0 9994 2 67882 97.2852 15.6127 0001511 77.7929 137.2742 15.75096654 5983
UTC large
Height (km)
Speed (km/s)
/
Latitude / Longitude
Inclination (degrees)
Orbital Period (minutes)
Azimuth
Elevation
Range (km)
Doppler Factor

Next 0 passes for location: London (51.5072 / 0.1276)

Sorry there are no passes over London.